Flag for U.S.A. Weather past 2 weeks in Pasco, Washington, U.S.A.

Now
82 °F

Sunny.


Feels Like: 82 °F
Forecast: 63 / 81 °F
Wind: 9 mph from Northwest

Location: Tri-Cities Airport

Current Time: Jul 22, 2014 at 7:46:33 PM

Latest Report: Jul 22, 2014 at 6:53 PM


Visibility: 10 mi

Pressure: 29.96 "Hg

Humidity: 44%

Dew point: 58 °F

Location of PascoLocation

Historic Weather in Pasco — Graph

°F

Pasco temperature yesterday

Maximum temperature yesterday: 84 °F (at 3:53 PM)
Minimum temperature yesterday: 60 °F (at 1:53 AM)
Average temperature yesterday: 73 °F

Past Weeks' High & Low Weather Summary

 TemperatureHumidityPressure
High108 °F (Jul 16, 3:53 PM)90% (Jul 8, 3:53 AM)30.03 "Hg (Jul 8, 3:53 AM)
Low55 °F (Jul 11, 4:53 AM)9% (Jul 16, 5:53 PM)29.66 "Hg (Jul 9, 7:53 PM)
Average82 °F41%29.85 "Hg
* Reported Jul 7 5:53 PM — Jul 22 5:53 PM, Pasco, Weather by CustomWeather, © 2014

Note: Actual official high and low records may vary slightly from our data, if they occured in-between our weather recording intervals... More about our weather records

Advertising

Pasco weather history for previous 24 hours

 ConditionsComfort  
Time TempWeatherWind HumidityBarometerVisibility
5:53 PM
Jul 22
86 °FScattered clouds.8 mph35%29.95 "Hg10 mi
4:53 PM86 °FSunny.5 mph32%29.97 "Hg10 mi
9:53 AM74 °FSunny.10 mph46%30.01 "Hg10 mi
8:53 AM72 °FLight rain. Broken clouds.5 mph49%30.01 "Hg10 mi
7:53 AM69 °FOvercast.5 mph63%29.98 "Hg10 mi
6:53 AM68 °FLight rain. Overcast.5 mph55%29.98 "Hg10 mi
5:53 AM73 °FOvercast.9 mph34%29.96 "Hg10 mi
4:53 AM72 °FOvercast.6 mph44%29.94 "Hg10 mi
3:53 AM69 °FClear.No wind51%29.93 "Hg10 mi
2:53 AM71 °FClear.3 mph41%29.92 "Hg10 mi
1:53 AM76 °FPassing clouds.7 mph26%29.92 "Hg10 mi
12:53 AM75 °FClear.7 mph36%29.92 "Hg10 mi
11:53 PM
Jul 21
77 °FPassing clouds.6 mph33%29.92 "Hg10 mi
10:53 PM78 °FPassing clouds.6 mph32%29.90 "Hg10 mi
9:53 PM79 °FPassing clouds.7 mph34%29.90 "Hg10 mi
8:53 PM81 °FScattered clouds.No wind26%29.89 "Hg10 mi
7:53 PM83 °FSunny.6 mph22%29.89 "Hg10 mi
Weather by CustomWeather, © 2014

See weather overviewHow to use our weather pages